Location: Bosmont
(49.7318°N, 3.8587°E)
Time: 19:49:01
(UTC+00:00)

METEOR 2-8 DEB - Visible Passes

Search period start: 26 February 2024 00:00
Search period end: 07 March 2024 00:00
Orbit: 806 x 837 km, 82.5° (Epoch: 23 February)

Date Brightness Start Highest point End Pass type
(mag) Time Alt. Az. Time Alt. Az. Time Alt. Az.
26 Feb ? 02:26:00 10° N 02:26:00 10° N 02:26:04 10° N visible
27 Feb ? 02:05:29 11° N 02:05:29 11° N 02:05:39 10° N visible
28 Feb ? 01:44:56 11° N 01:44:56 11° N 01:45:10 10° N visible
29 Feb ? 01:24:23 11° N 01:24:23 11° N 01:24:38 10° N visible
01 Mar ? 01:03:48 11° N 01:03:48 11° N 01:04:02 10° N visible
02 Mar ? 00:43:12 11° N 00:43:12 11° N 00:43:23 10° N visible
03 Mar ? 00:22:35 11° NNE 00:22:35 11° NNE 00:22:42 10° NNE visible
04 Mar ? 00:01:56 10° NNE 00:01:56 10° NNE 00:01:57 10° NNE visible
04 Mar ? 01:43:20 11° NNW 01:43:20 11° NNW 01:43:33 10° NNW visible
05 Mar ? 01:22:40 12° N 01:22:40 12° N 01:23:05 10° N visible
06 Mar ? 01:02:00 13° N 01:02:00 13° N 01:02:32 10° N visible
